EJU21LM EBBR-EGKK

Flight info

Callsign EJU21LM
Flight time 0h 35m
Altitude 28000
Route DENUT L610 TEBRA
Aircraft A320/M-SDE3FGHIRWY/LB1

Departure

Time 2026-05-07 21:58
Airport Brussels Airport (EBBR)

Arrival

Time 2026-05-07 22:33
Airport London Gatwick Airport (EGKK)
Time Latitude Longitude Altitude Speed Heading
2026-05-07 21:34 50.90177 4.47754 120 ft 0 kts 155°
2026-05-07 21:46 50.90192 4.47743 117 ft 4 kts 153°
2026-05-07 21:47 50.90216 4.47721 117 ft 4 kts 143°
2026-05-07 21:47 50.90235 4.47693 117 ft 4 kts 116°
2026-05-07 21:47 50.90238 4.47665 116 ft 0 kts 65°
2026-05-07 21:51 50.90254 4.47720 120 ft 7 kts 65°
2026-05-07 21:51 50.90273 4.47788 119 ft 6 kts 66°
2026-05-07 21:51 50.90290 4.47849 118 ft 7 kts 66°
2026-05-07 21:51 50.90308 4.47910 118 ft 6 kts 66°
2026-05-07 21:52 50.90337 4.48014 118 ft 15 kts 65°
2026-05-07 21:52 50.90384 4.48172 118 ft 16 kts 65°
2026-05-07 21:52 50.90432 4.48339 116 ft 17 kts 65°
2026-05-07 21:52 50.90481 4.48507 118 ft 18 kts 65°
2026-05-07 21:53 50.90536 4.48700 117 ft 20 kts 65°
2026-05-07 21:53 50.90597 4.48912 117 ft 22 kts 66°
2026-05-07 21:53 50.90663 4.49144 119 ft 24 kts 66°
2026-05-07 21:53 50.90733 4.49391 120 ft 25 kts 64°
2026-05-07 21:54 50.90800 4.49614 120 ft 20 kts 64°
2026-05-07 21:54 50.90878 4.49762 123 ft 17 kts 17°
2026-05-07 21:54 50.90984 4.49867 119 ft 20 kts 40°
2026-05-07 21:54 50.91042 4.49914 120 ft 0 kts 23°
2026-05-07 21:55 50.91048 4.49918 117 ft 5 kts 23°
2026-05-07 21:56 50.91118 4.49939 120 ft 11 kts 344°
2026-05-07 21:56 50.91128 4.49848 115 ft 9 kts 245°
2026-05-07 21:56 50.91125 4.49840 116 ft 0 kts 245°
2026-05-07 21:57 50.91094 4.49731 117 ft 37 kts 245°
2026-05-07 21:57 50.90872 4.48959 118 ft 111 kts 245°
2026-05-07 21:57 50.90470 4.47564 159 ft 161 kts 246°
2026-05-07 21:58 50.90028 4.45952 841 ft 162 kts 250°
2026-05-07 21:58 50.89863 4.44158 1519 ft 171 kts 276°
2026-05-07 21:58 50.90271 4.42293 1980 ft 193 kts 301°
2026-05-07 21:58 50.91009 4.40362 2371 ft 217 kts 299°
2026-05-07 21:59 50.91503 4.37974 2850 ft 242 kts 281°
2026-05-07 21:59 50.91817 4.35228 3456 ft 262 kts 279°
2026-05-07 21:59 50.92109 4.32332 4376 ft 268 kts 278°
2026-05-07 21:59 50.92457 4.29410 5378 ft 273 kts 287°
2026-05-07 22:00 50.93353 4.26753 6110 ft 275 kts 308°
2026-05-07 22:00 50.94563 4.24352 6864 ft 286 kts 308°
2026-05-07 22:00 50.95846 4.21818 7600 ft 303 kts 308°
2026-05-07 22:00 50.97199 4.19136 8359 ft 319 kts 308°
2026-05-07 22:01 50.98611 4.16325 9128 ft 333 kts 308°
2026-05-07 22:01 51.00077 4.13392 9914 ft 345 kts 307°
2026-05-07 22:01 51.01589 4.10356 10633 ft 356 kts 307°
2026-05-07 22:01 51.03130 4.07256 11350 ft 367 kts 307°
2026-05-07 22:02 51.04730 4.04029 12092 ft 377 kts 307°
2026-05-07 22:02 51.05837 4.01796 12604 ft 384 kts 307°
2026-05-07 22:02 51.08057 3.97321 13617 ft 394 kts 307°
2026-05-07 22:02 51.09769 3.93868 14348 ft 401 kts 307°
2026-05-07 22:03 51.10943 3.91499 14829 ft 405 kts 307°
2026-05-07 22:03 51.12695 3.87953 15552 ft 410 kts 307°
2026-05-07 22:03 51.14464 3.84368 16294 ft 413 kts 307°
2026-05-07 22:03 51.16242 3.80761 17052 ft 415 kts 307°
2026-05-07 22:04 51.18027 3.77134 17829 ft 416 kts 307°
2026-05-07 22:04 51.19810 3.73505 18586 ft 416 kts 307°
2026-05-07 22:04 51.21587 3.69875 19283 ft 414 kts 306°
2026-05-07 22:04 51.23104 3.65998 20001 ft 411 kts 295°
2026-05-07 22:05 51.24113 3.61821 20723 ft 396 kts 284°
2026-05-07 22:05 51.24698 3.57614 21469 ft 391 kts 281°
2026-05-07 22:05 51.25257 3.53380 22238 ft 388 kts 281°
2026-05-07 22:05 51.25815 3.49183 23030 ft 384 kts 281°
2026-05-07 22:06 51.26365 3.45028 23757 ft 382 kts 281°
2026-05-07 22:06 51.26918 3.40827 24004 ft 392 kts 281°
2026-05-07 22:06 51.27486 3.36505 24081 ft 404 kts 281°
2026-05-07 22:06 51.28066 3.32048 24101 ft 414 kts 281°
2026-05-07 22:07 51.28645 3.27519 24104 ft 417 kts 280°
2026-05-07 22:07 51.29225 3.22968 24109 ft 418 kts 280°
2026-05-07 22:07 51.29804 3.18423 24101 ft 417 kts 280°
2026-05-07 22:07 51.30384 3.13881 24106 ft 417 kts 280°
2026-05-07 22:08 51.30963 3.09339 24108 ft 417 kts 280°
2026-05-07 22:08 51.31538 3.04799 24110 ft 417 kts 280°
2026-05-07 22:08 51.32108 3.00259 24111 ft 416 kts 280°
2026-05-07 22:08 51.32677 2.95723 24111 ft 416 kts 280°
2026-05-07 22:09 51.33250 2.91189 24103 ft 416 kts 280°
2026-05-07 22:09 51.33820 2.86646 24100 ft 416 kts 280°
2026-05-07 22:09 51.34383 2.82101 24097 ft 416 kts 280°
2026-05-07 22:09 51.34940 2.77560 24096 ft 416 kts 280°
2026-05-07 22:10 51.35498 2.73011 24098 ft 416 kts 280°
2026-05-07 22:10 51.36059 2.68459 24098 ft 416 kts 280°
2026-05-07 22:10 51.36618 2.63913 24098 ft 416 kts 280°
2026-05-07 22:10 51.37178 2.59360 24096 ft 416 kts 280°
2026-05-07 22:11 51.37739 2.54823 24094 ft 416 kts 280°
2026-05-07 22:11 51.38303 2.50274 24093 ft 416 kts 280°
2026-05-07 22:11 51.38861 2.45736 24092 ft 416 kts 280°
2026-05-07 22:11 51.39413 2.41180 24092 ft 417 kts 280°
2026-05-07 22:12 51.39961 2.36624 24103 ft 417 kts 279°
2026-05-07 22:12 51.40496 2.32120 24100 ft 417 kts 279°
2026-05-07 22:12 51.41042 2.27550 24096 ft 418 kts 279°
2026-05-07 22:12 51.41590 2.22980 24095 ft 418 kts 279°
2026-05-07 22:13 51.42146 2.18413 24092 ft 418 kts 280°
2026-05-07 22:13 51.42704 2.13847 24093 ft 418 kts 280°
2026-05-07 22:13 51.43264 2.09284 24097 ft 412 kts 280°
2026-05-07 22:13 51.43810 2.04808 24100 ft 406 kts 279°
2026-05-07 22:14 51.44346 2.00376 24101 ft 405 kts 279°
2026-05-07 22:14 51.44877 1.95945 24103 ft 404 kts 279°
2026-05-07 22:14 51.45400 1.91516 24110 ft 404 kts 279°
2026-05-07 22:14 51.45916 1.87088 24105 ft 404 kts 279°
2026-05-07 22:15 51.46430 1.82654 24104 ft 404 kts 279°
2026-05-07 22:15 51.46944 1.78222 24103 ft 404 kts 279°
2026-05-07 22:15 51.47458 1.73788 24103 ft 404 kts 279°
2026-05-07 22:15 51.47968 1.69357 24102 ft 404 kts 279°
2026-05-07 22:16 51.48400 1.64907 24101 ft 403 kts 273°
2026-05-07 22:16 51.48336 1.60422 24098 ft 402 kts 262°
2026-05-07 22:16 51.47750 1.56044 23533 ft 401 kts 251°
2026-05-07 22:16 51.46793 1.51847 22706 ft 401 kts 249°
2026-05-07 22:17 51.45815 1.47677 21988 ft 398 kts 249°
2026-05-07 22:17 51.44847 1.43543 21335 ft 394 kts 249°
2026-05-07 22:17 51.43681 1.39602 20701 ft 390 kts 238°
2026-05-07 22:17 51.42061 1.36202 20089 ft 387 kts 226°
2026-05-07 22:18 51.40030 1.33411 19510 ft 384 kts 217°
2026-05-07 22:18 51.35758 1.28378 18313 ft 379 kts 217°
2026-05-07 22:18 51.33640 1.25882 17668 ft 376 kts 217°
2026-05-07 22:19 51.31542 1.23404 17066 ft 373 kts 217°
2026-05-07 22:19 51.29447 1.20928 16062 ft 380 kts 217°
2026-05-07 22:19 51.27292 1.18384 15023 ft 389 kts 217°
2026-05-07 22:19 51.25115 1.15821 14282 ft 388 kts 216°
2026-05-07 22:20 51.22945 1.13276 13589 ft 385 kts 216°
2026-05-07 22:20 51.20795 1.10756 12874 ft 382 kts 216°
2026-05-07 22:20 51.18666 1.08255 12172 ft 378 kts 216°
2026-05-07 22:20 51.16558 1.05781 11480 ft 375 kts 216°
2026-05-07 22:21 51.14492 1.03362 10809 ft 372 kts 216°
2026-05-07 22:21 51.12417 1.00937 10132 ft 368 kts 217°
2026-05-07 22:21 51.10357 0.98537 9421 ft 365 kts 216°
2026-05-07 22:21 51.08296 0.96145 9143 ft 373 kts 216°
2026-05-07 22:22 51.06259 0.93521 9067 ft 379 kts 227°
2026-05-07 22:22 51.04777 0.90059 9073 ft 381 kts 244°
2026-05-07 22:22 51.03630 0.86263 9036 ft 381 kts 245°
2026-05-07 22:22 51.02500 0.82450 9041 ft 382 kts 245°
2026-05-07 22:23 51.01371 0.78627 9030 ft 382 kts 245°
2026-05-07 22:23 51.00240 0.74811 9019 ft 382 kts 245°
2026-05-07 22:23 50.99108 0.71007 9011 ft 381 kts 245°
2026-05-07 22:23 50.97970 0.67201 9005 ft 381 kts 244°
2026-05-07 22:24 50.96829 0.63403 9001 ft 381 kts 244°
2026-05-07 22:24 50.95691 0.59626 8723 ft 376 kts 244°
2026-05-07 22:24 50.94563 0.55899 7892 ft 373 kts 244°
2026-05-07 22:24 50.93439 0.52207 7240 ft 372 kts 244°
2026-05-07 22:25 50.92319 0.48507 7054 ft 372 kts 245°
2026-05-07 22:25 50.91638 0.44580 6996 ft 372 kts 266°
2026-05-07 22:25 50.91913 0.40524 7014 ft 372 kts 285°
2026-05-07 22:25 50.92606 0.36634 7008 ft 372 kts 286°
2026-05-07 22:26 50.93332 0.32693 7008 ft 372 kts 286°
2026-05-07 22:26 50.94069 0.28756 7008 ft 373 kts 286°
2026-05-07 22:26 50.94808 0.24811 7011 ft 373 kts 286°
2026-05-07 22:26 50.95545 0.20877 7015 ft 372 kts 286°
2026-05-07 22:27 50.96282 0.16943 7020 ft 372 kts 286°
2026-05-07 22:27 50.97019 0.13007 7029 ft 372 kts 286°
2026-05-07 22:27 50.97755 0.09075 7039 ft 371 kts 286°
2026-05-07 22:27 50.98487 0.05166 6782 ft 366 kts 286°
2026-05-07 22:28 50.99206 0.01304 5943 ft 363 kts 286°
2026-05-07 22:28 50.99917 -0.02539 5043 ft 363 kts 286°
2026-05-07 22:28 51.00634 -0.06393 4314 ft 365 kts 286°
2026-05-07 22:28 51.01358 -0.10268 4077 ft 367 kts 286°
2026-05-07 22:29 51.02076 -0.14108 3889 ft 352 kts 286°
2026-05-07 22:29 51.02745 -0.17675 3669 ft 321 kts 286°
2026-05-07 22:29 51.03366 -0.20914 3473 ft 291 kts 290°
2026-05-07 22:29 51.04334 -0.23538 3271 ft 265 kts 309°
2026-05-07 22:30 51.05463 -0.25708 3076 ft 244 kts 311°
2026-05-07 22:30 51.06523 -0.27674 2907 ft 233 kts 313°
2026-05-07 22:30 51.07797 -0.29152 2723 ft 224 kts 336°
2026-05-07 22:30 51.09194 -0.30084 2529 ft 210 kts 340°
2026-05-07 22:31 51.10517 -0.30833 2268 ft 193 kts 351°
2026-05-07 22:31 51.11762 -0.30767 2035 ft 168 kts 24°
2026-05-07 22:31 51.12647 -0.29787 1788 ft 150 kts 48°
2026-05-07 22:31 51.13327 -0.28548 1400 ft 144 kts 60°
2026-05-07 22:32 51.13708 -0.27144 1120 ft 136 kts 76°
2026-05-07 22:32 51.13913 -0.25647 919 ft 142 kts 79°
2026-05-07 22:32 51.14117 -0.24086 704 ft 144 kts 77°
2026-05-07 22:32 51.14337 -0.22539 476 ft 140 kts 77°
2026-05-07 22:33 51.14536 -0.21049 300 ft 135 kts 78°
2026-05-07 22:33 51.14727 -0.19660 216 ft 119 kts 78°
2026-05-07 22:33 51.14856 -0.18732 202 ft 42 kts 77°
2026-05-07 22:33 51.14895 -0.18445 202 ft 25 kts 77°
2026-05-07 22:34 51.14932 -0.18176 209 ft 25 kts 78°
2026-05-07 22:34 51.14968 -0.17908 207 ft 24 kts 78°
2026-05-07 22:34 51.15003 -0.17646 213 ft 25 kts 78°
2026-05-07 22:34 51.15053 -0.17374 208 ft 27 kts 62°
2026-05-07 22:35 51.15166 -0.17225 210 ft 20 kts 338°
2026-05-07 22:35 51.15288 -0.17351 204 ft 16 kts 349°
2026-05-07 22:35 51.15371 -0.17291 205 ft 16 kts 76°
2026-05-07 22:35 51.15405 -0.17110 216 ft 18 kts 67°
2026-05-07 22:36 51.15436 -0.16916 211 ft 15 kts 78°
2026-05-07 22:36 51.15447 -0.16741 206 ft 13 kts 99°
2026-05-07 22:36 51.15467 -0.16699 210 ft 5 kts 343°
2026-05-07 22:36 51.15498 -0.16712 206 ft 4 kts 347°
2026-05-07 22:37 51.15516 -0.16719 213 ft 0 kts 347°